COSMOS 1718

Satellite information

Favourite Embed

Satellite Type and Status

PAYLOADIN ORBIT

Key statistics

Satellite COSMOS 1718 at a glance.

Uptime

14542

Days in orbit

Revolutions

≈ 12.5

Per day

Orbit

LEO

Low Earth Orbit

Inclination

74.0

Latest

Satellite identification and parameters

Extended collection of information and parameters for COSMOS 1718.

Object identification

Identified? True

Debris? False

Object name: COSMOS 1718

International designator: 1986-002C

Object number (NORAD): 16451

Object ID (CCSDS): 16451

Country: COMMONWEALTH OF INDEPENDENT STATES (CIS)

Current information (Y/N): Y

RCS size: MEDIUM

Orbital parameters

Period: 115.654 minutes

Inclination: 73.9914 deg

SMA: 7863.23 km

Apoapsis: 1495.897 km

Periapsis: 1474.294 km

RAAN: 46.8812 deg

Eccentricy: 0.00137367

Argument of periapsis: 222.4482 deg

Mean anomaly: 149.0816 deg

Mean motion: 12.45091551 rev/day

Mean motion (dot): -0.0000002 rev/day2

B* drag term: -0.000026131226 1/REarth

Two-line elements (TLE)

Creation date: Nov. 1, 2025, 7:40 p.m.

Reference frame: TEME

Reference center: EARTH

Epoch: Nov. 1, 2025, 1:55 p.m. UTC

TLE line 0: 0 COSMOS 1718

TLE line 1: 1 16451U 86002C 25305.58025580 -.00000020 00000-0 -26131-4 0 9992

TLE line 2: 2 16451 73.9914 46.8812 0013737 222.4482 149.0816 12.45091551809544

Live tracking on map

Real-time ground track for satellite COSMOS 1718.

In-orbit conjunctions

There are no conjunctions computed for COSMOS 1718, at the moment. Check back to stay up to date, as we update our databases every day.

Go to all conjunctions

Associated space launch

Military communications satellites

COSMOS 1718 was lifted into orbit during the mission ‘Kosmos-3M | Strela-1M 297-304’, on board a Kosmos-3M space rocket.

The launch took place on Jan. 9, 1986, 2:48 a.m. from 132/2.

For more information about the launch, click the button.

Launch to space Kosmos-3M | Strela-1M 297-304
Kosmos-3M | Strela-1M 297-304

Agency: N/A

Status: Launch Successful

Launch date: Jan. 9, 1986, 2:48 a.m. UTC

Rocket: Kosmos-3M

Launch pad: 132/2

Location: Plesetsk Cosmodrome, Russian Federation

...

Latest news about this satellite

There are no fresh news available about this satellite. Check back as we update our databases every day.


Newsletter sign-up

Weekly statistics, charts and insights to help you stay on top of the space industry.